Regional Weather Roundup
Issued by NWS

Home | Current Version | Previous Version | Graphics & Text | Print | Product List | Glossary On
Versions: 1 2 3 4 5 6 7 8 9 10 11 12 13 14 15 16 17 18 19 20 21 22 23 24 25 26 27 28 29 30 31 32 33 34 35 36 37 38 39 40 41 42 43 44 45 46 47 48 49 50
000
ASUS43 KTOP 180308
RWRKS

WEATHER ROUNDUP FOR KANSAS
NATIONAL WEATHER SERVICE GOODLAND KS
900 PM CST WED JAN 17 2018

NOTE:  "FAIR" INDICATES FEW OR NO CLOUDS BELOW 12,000 FEET WITH NO
SIGNIFICANT WEATHER AND/OR OBSTRUCTIONS TO VISIBILITY.

KSZ001>006-013>018-027>032-041>047-180400-
NORTHWEST KANSAS

CITY           SKY/WX    TMP DP  RH WIND       PRES   REMARKS
GOODLAND       CLEAR     19  10  68 W5        30.24F
HAYS           CLEAR     21  11  65 SE8       30.33F
HILL CITY      CLOUDY    23  12  62 SW3       30.30F
RUSSELL        CLEAR     24  13  62 S13       30.33S WCI  12
$$

KSZ061>065-074>080-084>089-180400-
SOUTHWEST KANSAS

CITY           SKY/WX    TMP DP  RH WIND       PRES   REMARKS
DODGE CITY     CLOUDY    27   5  39 S12       30.30F WCI  17
ELKHART        CLEAR     34  15  45 SW12      30.29S WCI  26
GARDEN CITY    CLEAR     24   9  52 S9        30.27F
GREAT BEND     CLOUDY    20  10  65 S9        30.36S
LIBERAL        CLOUDY    25  10  53 SW10      30.31S WCI  15
PRATT          CLOUDY    27   1  32 S14       30.37S WCI  16
$$

KSZ066>073-081>083-090>101-180400-
SOUTHEAST KANSAS

CITY           SKY/WX    TMP DP  RH WIND       PRES   REMARKS
CHANUTE        CLOUDY    13   9  84 SE7       30.51F
COFFEYVILLE    CLOUDY    16   7  67 SE6       30.54F
HUTCHINSON     CLOUDY    24   9  52 S12       30.40F WCI  13
MEDICINE LODGE   N/A     26   3  37 S10       30.41S WCI  16
NEWTON         CLOUDY    17   9  70 S10       30.42F WCI   5
PARSONS        CLOUDY    15   9  76 S3        30.53F
WICHITA INTL   CLOUDY    20   7  57 S8        30.44F
WICHITA JABRA  CLOUDY    21   9  59 S10       30.44F WCI  10
WICHITA MCCONL CLOUDY    22   7  50 S9        30.44F
WINFIELD       CLOUDY    21   8  57 S10       30.49F WCI  10
$$

KSZ007>012-019>026-033>040-048>060-102>105-180400-
NORTHEAST KANSAS

CITY           SKY/WX    TMP DP  RH WIND       PRES   REMARKS
CONCORDIA      CLOUDY    23  12  62 S10       30.35F WCI  12
EMPORIA        CLEAR     17  11  77 S12       30.45F WCI   4
LAWRENCE       CLOUDY    17  11  77 S6        30.47F
MANHATTAN      CLEAR     19  11  70 SW6       30.42F
MARYSVILLE     CLOUDY    21  14  73 S9        30.38F
OLATHE IND     CLOUDY    15   9  76 S8        30.47F
OLATHE EXE     CLOUDY    15   9  76 S9        30.46F
SALINA         CLOUDY    25  11  55 S13       30.40F WCI  14
TOPEKA BILLARD CLOUDY    21  13  71 S7        30.46F
TOPEKA FORBES  CLOUDY    19  12  74 S9        30.44F
$$



USA.gov is the U.S. government's official web portal to all federal, state and local government web resources and services.